Regional Weather Roundup
Issued by NWS Upton, NY

Current Version | Previous Version | Text Only | Print | Product List | Glossary On
Versions: 1 2 3 4 5 6 7 8 9 10 11 12 13 14 15 16 17 18 19 20 21 22 23 24 25 26 27 28 29 30 31 32 33 34 35 36 37 38 39 40 41 42 43 44 45 46 47 48 49 50
000
ASUS41 KOKX 210908
RWROKX

REGIONAL WEATHER ROUNDUP
NATIONAL WEATHER SERVICE NEW YORK NY
400 AM EST SAT JAN 21 2017

NOTE: "FAIR" INDICATES FEW OR NO CLOUDS BELOW 12,000 FEET WITH NO
SIGNIFICANT WEATHER AND/OR OBSTRUCTIONS TO VISIBILITY.

NYZ071-072-176-178-NJZ106-104-211000-
NEW YORK CITY METRO AREA

CITY           SKY/WX    TMP DP  RH WIND       PRES   REMARKS
Central Park   CLOUDY    42  40  92 W5        29.92S FOG
Wall St Helipt CLOUDY    42  40  92 W8        29.91F
LaGuardia APRT CLOUDY    45  41  86 SW8       29.90F FOG
Kennedy INTL   CLOUDY    42  42 100 SW7       29.91F FOG
Breezy Point     N/A     41 N/A N/A W5          N/A
Newark/Liberty CLOUDY    43  41  93 SW7       29.90F FOG
Teterboro      CLOUDY    43  41  93 SW6       29.90S FOG
$$

NYZ177-179-078>081-211000-
LONG ISLAND NEW YORK

CITY           SKY/WX    TMP DP  RH WIND       PRES   REMARKS
Jones Beach      N/A     41 N/A N/A W5          N/A
Matinecock PT  NOT AVBL
Farmingdale    CLOUDY    43  41  93 SW5       29.90S
MacArthur/ISP  CLOUDY    42  42 100 SW3       29.88F FOG
Shirley        CLOUDY    42  42 100 SW3       29.89F FOG
Westhampton    CLOUDY    42  41  96 SW3       29.90F FOG
Southampton    NOT AVBL
Bridgehampton  NOT AVBL
East Hampton   CLOUDY    42  41  97 CALM      29.89F
Montauk          N/A     43  42  97 CALM      29.91F
$$

NYZ052-065-067-211000-
HUDSON VALLEY

CITY           SKY/WX    TMP DP  RH WIND       PRES   REMARKS
White Plains     N/A     41  39  93 SW7       29.87S FOG
Newburgh       CLOUDY    39  39 100 W9        29.87  FOG     WCI  33
Montgomery     CLOUDY    39  38  96 SW5       29.86F FOG
Poughkeepsie   CLOUDY    39  38  96 S6        29.87S FOG     WCI  35
Albany         CLOUDY    39  35  86 S7        29.86F WCI  34
$$

NJZ001-105-106-008-010-013-015-019>022-104-211000-
NEW JERSEY

CITY           SKY/WX    TMP DP  RH WIND       PRES   REMARKS
Newark/Liberty CLOUDY    43  41  93 SW7       29.90F FOG
Teterboro      CLOUDY    43  41  93 SW6       29.90S FOG
Caldwell       CLOUDY    41  40  96 VRB3      29.90F FOG
Somerville     CLOUDY    41  39  93 CALM      29.90S FOG
Linden         CLOUDY    42  40  93 CALM      29.91S FOG
Sussex         CLOUDY    38  38 100 SW5       29.88F FOG     WCI  34
Andover          N/A     38  37  97 SW3       29.89F
Trenton        FOG       41  41 100 CALM      29.92R VSB 1
Millville      CLOUDY    43  43 100 CALM      29.93S FOG
Atlantic City  CLOUDY    44  41  89 CALM      29.92F
Wrightstown    CLOUDY    41  40  96 SW6       29.90R
Toms River     CLOUDY    42  41  96 CALM      29.92F FOG
Belmar         CLOUDY    41  41 100 SW7       29.92S FOG
$$

PAZ047>061-062-071-211000-
EASTERN PENNSYLVANIA

CITY           SKY/WX    TMP DP  RH WIND       PRES   REMARKS
Philadelphia   CLOUDY    43  41  93 CALM      29.93S FOG
Allentown      FOG       39  37  92 CALM      29.91S VSB 1/2
Scranton       FOG       39  39 100 CALM      29.87F VSB 1
$$

CTZ002-004>006-009-010-012-RIZ004-006-007-MAZ004-011-015-211000-
SOUTHERN NEW ENGLAND
 IN CT

CITY           SKY/WX    TMP DP  RH WIND       PRES   REMARKS
Bradley INTL   CLOUDY    37  37 100 CALM      29.88F FOG
Hartford       CLOUDY    37  37 100 CALM      29.88F FOG
Danbury        FOG       38  37  97 W5        29.88S VSB 3/4 WCI  34
Wtrbury/Oxford CLOUDY    37  34  87 SW3       29.87F VSB<1/4
Bridgeport     CLOUDY    41  38  89 CALM      29.89F FOG
Meriden        CLOUDY    39  36  89 CALM      29.88F FOG
New Haven      CLOUDY    39  38  96 CALM      29.88F
Chester        FOG       41  39  93 W6        29.87F VSB 1
Groton         CLOUDY    42  40  92 W8        29.89F FOG
Wilimantic     CLOUDY    38  37  97 CALM      29.89F FOG

 IN RI

CITY           SKY/WX    TMP DP  RH WIND       PRES   REMARKS
Providence     CLOUDY    40  35  83 CALM      29.89F
Block Island   NOT AVBL
Westerly       CLOUDY    44  40  85 W9        29.90S FOG
 IN MA

CITY           SKY/WX    TMP DP  RH WIND       PRES   REMARKS
Boston         CLOUDY    38  37  97 S6        29.89F WCI  33
Worcester      FOG       34  32  92 SW7       29.84F VSB 1/4 WCI  28
Westfield      CLOUDY    36  36 100 E3        29.86F FOG
Provincetown   CLOUDY    40  36  86 S6        29.90F
Nantucket      CLOUDY    42  36  79 S6        29.90F
$$

ANZ330-335-338-340-345-350-353-355-211000-
COASTAL MARINE OBSERVATIONS


STATION/POSITION TIME  SKY/WX   TEMP    WIND        PRES    VSBY  WAVE
                                AIR SEA DIR/SP/G                  HT/PER
                 (UTC)          (F)     (DEG/KT/KT) (MB)    (MI)  (FT/S)
NY HARB ENTRANCE 0750            44 43  240/  6/  8 1012.8          3/11
20 S FIRE ISLAND 0750            46 45  250/  4/  6 1013.0          3/12
GREAT SOUTH BAY  NOT AVBL
23 SSW MONTAUK P 0750            46 47  220/ 10/ 12 1013.1          3/ 8
15 E BARNEGAT LI 0830               47                N/A           4/13
HUDSON CANYON    0750            51 51              1013.1          4/11
KINGS POINT      0848            43 39              1012.1
EXECUTION ROCKS  0845            40      CALM  /  2   N/A
CENTRAL LI SOUND 0815            41     270/  4/  6   N/A           0
EASTERN LI SOUND NOT AVBL
ROBBINS REEF     0848            42     250/  8/  9 1012.8
$$


>>>>>>>>>>>>>>>>>>>>>>>>>>>> KEY <<<<<<<<<<<<<<<<<<<<<<<<<<<
>                                                          <
>     SKY/WX - Sky Condition/Present Weather               <
>     TMP    - Temperature in Fahrenheit                   <
>     DP     - Dew Point in Fahrenheit                     <
>     RH     - Relative Humidity in Percent                <
>     WIND   - Direction (from) and Speed in MPH           <
>     PRES   - Mean Sea Level Pressure (inches of Hg)      <
>     WCI    - Wind Chill Index                            <
>     VSB    - VISIBILITY IN MILES                         <
>     HX     - HEAT INDEX                                  <
>     TC     - TEMPERATURE IN CELSIUS                      <
>     VRB    - VARIABLE WIND DIRECTION                     <
>                                                          <
>>>>>>>>>>>>>>>>>>>>>>>>>>>> KEY <<<<<<<<<<<<<<<<<<<<<<<<<<<



USA.gov is the U.S. government's official web portal to all federal, state and local government web resources and services.